User: anonymous   Login
Location: Wellington
(41.3000°S, 174.7830°E)
Time: 09:47:56
(UTC+13:00)
Language:

Cosmos 2208 Rocket - Orbit

View from above orbital plane
View from above orbital plane
View from above satellite
View from above satellite

Ground track
Ground track

The orbit data is extracted from the following two-line orbital elements,

1 22081U 92053B   19326.36662851  .00000013  00000-0  14142-4 0  9990
2 22081  74.0444 254.5539 0035839   4.2706 355.8744 14.33459718426102
Epoch (UTC): 22 November 2019 08:47:56
Eccentricity: 0.0035839
inclination: 74.0444°
perigee height: 754 km
apogee height: 806 km
right ascension of ascending node: 254.5539°
argument of perigee: 4.2706°
revolutions per day: 14.33459718
mean anomaly at epoch: 355.8744°
orbit number at epoch: 42610

The dashed part of the orbit path shows where the satellite is in the earth's shadow,  

DLR